Home   Weather   Gorzów Wielkopolski   Past weeks

Flag for Poland Past Weather in Gorzów Wielkopolski, Poland — Yesterday and Last 2 Weeks

43 °F

Light rain. Low clouds.

Feels Like: 43 °F
Forecast: 41 / 48 °F
Wind: 1 mph from Southwest

Location: Gorzow Wlkp

Current Time: Oct 22, 2016 at 7:21:50 AM

Latest Report: Oct 22, 2016 at 6:00 AM

Visibility: 1 mi

Pressure: 29.94 "Hg

Humidity: 97%

Dew Point: 42 °F

Location of Gorzów WielkopolskiLocation

Past Weather in Gorzów Wielkopolski — Graph


Gorzów Wielkopolski Temperature Yesterday

Maximum temperature yesterday: 46 °F (at 2:00 PM)
Minimum temperature yesterday: 42 °F (at 5:00 AM)
Average temperature yesterday: 44 °F

High & Low Weather Summary for the Past Weeks

High53 °F (Oct 14, 3:00 PM)98% (Oct 18, 6:00 AM)30.38 "Hg (Oct 18, 6:00 AM)
Low35 °F (Oct 14, 7:00 AM)62% (Oct 7, 12:00 PM)29.92 "Hg (Oct 21, 5:00 AM)
Average45 °F90%30.13 "Hg
* Reported Oct 7 6:00 AM — Oct 22 6:00 AM, Gorzów Wielkopolski, Weather by CustomWeather, © 2016

Note: Actual official high and low records may vary slightly from our data, if they occured in-between our weather recording intervals... More about our weather records


Gorzów Wielkopolski Weather History for the Previous 24 Hours

Scroll right to see more
Time TempWeatherWind HumidityBarometerVisibility
6:00 AM
Sat, Oct 22
43 °FLight rain. Low clouds.1 mph97%29.94 "Hg1 mi
5:00 AM43 °FLight rain. Low clouds.No wind97%29.93 "Hg1 mi
4:00 AM43 °FLight rain. Low clouds.No wind96%29.94 "Hg1 mi
3:00 AM43 °FDrizzle. Low clouds.1 mph96%29.95 "Hg1 mi
2:00 AM44 °FLow clouds.1 mph94%29.96 "Hg2 mi
1:00 AM44 °FFog.1 mph94%29.96 "Hg2 mi
12:00 AM43 °FFog.1 mph94%29.97 "Hg1 mi
11:00 PM
Fri, Oct 21
43 °FFog.1 mph94%29.97 "Hg1 mi
10:00 PM43 °FFog.No wind92%29.98 "Hg2 mi
9:00 PM43 °FFog.No wind92%29.97 "Hg2 mi
8:00 PM44 °FFog.1 mph91%29.97 "Hg2 mi
7:00 PM44 °FFog.1 mph91%29.97 "Hg2 mi
6:00 PM44 °FFog.2 mph89%29.97 "Hg2 mi
5:00 PM44 °FLow clouds.3 mph88%29.96 "Hg2 mi
4:00 PM45 °FLight rain. Low clouds.2 mph88%29.96 "Hg3 mi
3:00 PM46 °FFog.2 mph88%29.95 "Hg3 mi
2:00 PM46 °FFog.2 mph87%29.95 "Hg3 mi
1:00 PM45 °FFog.2 mph89%29.95 "Hg2 mi
12:00 PM44 °FFog.3 mph94%29.94 "Hg2 mi
11:00 AM44 °FFog.2 mph97%29.94 "Hg1 mi
10:00 AM43 °FFog.3 mph98%29.94 "Hg1 mi
9:00 AM43 °FFog.3 mph98%29.93 "Hg1 mi
8:00 AM42 °FFog.2 mph98%29.93 "Hg1 mi
7:00 AM42 °FFog.2 mph98%29.92 "Hg1 mi
Weather by CustomWeather, © 2016

See weather overviewHow to use our weather pages